Regional Weather Roundup
Issued by NWS Albany, NY

Home | Current Version | Previous Version | Text Only | Print | Product List | Glossary On
Versions: 1 2 3 4 5 6 7 8 9 10 11 12 13 14 15 16 17 18 19 20 21 22 23 24 25 26 27 28
000
ASUS41 KALY 291610
RWRALY

NEW YORK STATE HOURLY WEATHER ROUNDUP
NATIONAL WEATHER SERVICE ALBANY NY
1200 PM EDT SUN MAY 29 2016

NOTE: "FAIR" INDICATES FEW OR NO CLOUDS BELOW 12,000 FEET WITH NO
SIGNIFICANT WEATHER AND/OR NO OBSTRUCTIONS TO VISIBILITY.

NYZ032-033-038>043-046>054-057>066-NYZ062>081-082-084-291700-
EAST


CITY           SKY/WX    TMP DP  RH WIND       PRES   REMARKS
ALBANY         PTSUNNY   88  68  51 S9        30.07F HX  91
GLENS FALLS    MOSUNNY   84  68  58 SE8       30.07F
POUGHKEEPSIE   SUNNY     88  69  53 VRB7      30.08F HX  92
NEWBURGH       PTSUNNY   84  72  65 W7        30.12F
MONTGOMERY     CLOUDY    86  71  60 S9        30.10F HX  91
WHITE PLAINS   SUNNY     85  63  47 S7        30.13F
ISLIP          PTSUNNY   79  60  52 SW12      30.14F
NEW YORK CITY  CLOUDY    86  65  49 S13       30.12F
CENTRAL PARK   PTSUNNY   84  59  42 MISG      30.15F
$$

NYZ005>009-017-018-044>046-055-056-291700-
CENTRAL


CITY           SKY/WX    TMP DP  RH WIND       PRES   REMARKS
FULTON         MOSUNNY   87  69  54 W6        30.05F HX  91
SYRACUSE       PTSUNNY   86  65  49 W10       30.04F
ROME           PTSUNNY   83  69  62 SW5       30.06F
ELMIRA         MOSUNNY   88  65  46 SW12      30.07F HX  90
BINGHAMTON     MOSUNNY   82  66  58 S9        30.12F
MONTICELLO     MOSUNNY   84  70  61 S9        30.16F
$$

NYZ026>034-041>043-087-291700-
NORTH


CITY           SKY/WX    TMP DP  RH WIND       PRES   REMARKS
WATERTOWN      MOSUNNY   79  68  69 W7        30.05F
FORT DRUM      NOT AVBL
MASSENA        PTSUNNY   75  61  61 NE9       30.06F
SARANAC LAKE   PTSUNNY   85  56  37 SW7       30.09F
PLATTSBURGH    CLOUDY    78  65  63 N9        30.06F
$$

NYZ001>004-010>016-019>021-085-291700-
WEST


CITY           SKY/WX    TMP DP  RH WIND       PRES   REMARKS
NIAGARA FALLS  CLOUDY    83  63  50 SW9       30.05F
BUFFALO        CLOUDY    79  63  57 SW13      30.07F
DUNKIRK        MOSUNNY   79  65  62 W9        30.08F
WELLSVILLE     PTSUNNY   80  66  62 VRB6      30.15F
ROCHESTER      CLOUDY    84  68  58 SW5       30.06F
PENN YAN       PTSUNNY   84  67  56 SW5       30.09F
$$

             KEY
       WCI = WIND CHILL INDEX
       VSB = VISIBILITY
       HX  = HEAT INDEX
$$




USA.gov is the U.S. government's official web portal to all federal, state and local government web resources and services.